TimeHST,TemperatureF,Dew PointF,Humidity,Sea Level PressureIn,VisibilityMPH,Wind Direction,Wind SpeedMPH,Gust SpeedMPH,PrecipitationIn,Events,Conditions,WindDirDegrees,DateUTC
12:57 AM,71.6,63.0,74,29.98,10.0,West,3.5,-,N/A,,Mostly Cloudy,270,2014-01-17 10:57:00
1:57 AM,71.6,62.1,72,29.97,9.0,Calm,Calm,-,N/A,,Overcast,0,2014-01-17 11:57:00
2:57 AM,71.6,63.0,74,29.96,9.0,Calm,Calm,-,N/A,,Mostly Cloudy,0,2014-01-17 12:57:00
3:57 AM,71.6,64.0,77,29.96,9.0,Calm,Calm,-,N/A,,Mostly Cloudy,0,2014-01-17 13:57:00
4:57 AM,69.8,63.0,79,29.96,8.0,Calm,Calm,-,N/A,,Scattered Clouds,0,2014-01-17 14:57:00
5:27 AM,69.8,62.6,78,29.98,6.2,SSE,3.5,-,N/A,,Mostly Cloudy,160,2014-01-17 15:27:00
5:57 AM,69.8,62.1,76,29.97,8.0,Calm,Calm,-,N/A,,Scattered Clouds,0,2014-01-17 15:57:00
6:57 AM,69.8,62.1,76,29.97,8.0,Calm,Calm,-,N/A,,Scattered Clouds,0,2014-01-17 16:57:00
7:04 AM,-9999,-9999,N/A,29.99,6.2,Calm,Calm,-,N/A,,Overcast,0,2014-01-17 17:04:00
7:19 AM,69.8,64.4,83,29.99,6.2,Calm,Calm,-,N/A,,Scattered Clouds,0,2014-01-17 17:19:00
7:57 AM,73.4,64.9,75,29.99,7.0,Calm,Calm,-,N/A,,Scattered Clouds,0,2014-01-17 17:57:00
8:57 AM,73.4,66.0,78,30.00,7.0,Calm,Calm,-,N/A,,Scattered Clouds,0,2014-01-17 18:57:00
9:14 AM,75.2,66.2,73,30.02,6.2,WSW,3.5,-,N/A,,Mostly Cloudy,240,2014-01-17 19:14:00
9:25 AM,75.2,66.2,73,30.03,6.2,SSW,3.5,-,N/A,,Partly Cloudy,200,2014-01-17 19:25:00
9:57 AM,75.2,66.0,73,30.02,7.0,NNE,3.5,-,N/A,,Scattered Clouds,20,2014-01-17 19:57:00
10:57 AM,78.8,66.9,67,30.02,7.0,ENE,4.6,-,N/A,,Scattered Clouds,70,2014-01-17 20:57:00
11:57 AM,78.8,66.0,65,30.01,9.0,ENE,4.6,-,N/A,,Scattered Clouds,70,2014-01-17 21:57:00
12:57 PM,78.8,64.9,62,29.99,10.0,Calm,Calm,-,N/A,,Scattered Clouds,0,2014-01-17 22:57:00
1:57 PM,77.0,66.0,69,29.97,10.0,ESE,4.6,-,N/A,,Scattered Clouds,120,2014-01-17 23:57:00
2:57 PM,77.0,64.9,66,29.96,10.0,Variable,4.6,-,N/A,,Scattered Clouds,0,2014-01-18 00:57:00
3:57 PM,77.0,64.9,66,29.96,8.0,ESE,3.5,-,0.00,,Scattered Clouds,110,2014-01-18 01:57:00
4:57 PM,77.0,64.9,66,29.98,7.0,Calm,Calm,-,0.00,,Scattered Clouds,0,2014-01-18 02:57:00
5:06 PM,77.0,66.2,69,29.99,6.0,Calm,Calm,-,0.00,Rain,Light Rain,0,2014-01-18 03:06:00
5:44 PM,77.0,66.2,69,29.99,6.2,Calm,Calm,-,0.00,,Overcast,0,2014-01-18 03:44:00
5:57 PM,77.0,66.0,69,29.99,8.0,Calm,Calm,-,0.00,,Overcast,0,2014-01-18 03:57:00
6:57 PM,77.0,66.9,71,29.99,8.0,Calm,Calm,-,N/A,,Scattered Clouds,0,2014-01-18 04:57:00
7:57 PM,75.2,66.0,73,30.01,8.0,Calm,Calm,-,N/A,,Mostly Cloudy,0,2014-01-18 05:57:00
8:57 PM,75.2,66.9,75,30.01,7.0,Calm,Calm,-,N/A,,Partly Cloudy,0,2014-01-18 06:57:00
9:57 PM,75.2,64.9,70,30.02,5.0,Calm,Calm,-,N/A,,Haze,0,2014-01-18 07:57:00
10:57 PM,73.4,64.0,72,30.01,7.0,Calm,Calm,-,N/A,,Clear,0,2014-01-18 08:57:00
11:57 PM,71.6,63.0,74,30.01,6.0,Calm,Calm,-,N/A,,Haze,0,2014-01-18 09:57:00